NV6B Weather Reports


Display with metric or nautical units.
time (UTC)temp
F
wind
direction
speed
MPH
gust
MPH
rain 1hr
in
rain 24hr
in
rain mn
in
humidity
%
barometer
mb
20260831162449 65 95 2.0 4.0 0.00 0.00 0.00 27 1018.5
20260831161449 63 177 2.0 5.0 0.00 0.00 0.00 30 1018.6
20260831160449 62 144 4.0 4.0 0.00 0.00 0.00 33 1018.6
20260831155449 60 174 3.0 3.0 0.00 0.00 0.00 35 1018.8
20260831154449 60 174 3.0 5.0 0.00 0.00 0.00 36 1018.9
20260831153450 60 121 2.0 5.0 0.00 0.00 0.00 37 1018.9
20260831124447 44 127 2.0 3.0 0.00 0.00 0.00 49 1018.1
20260831123447 44 126 3.0 3.0 0.00 0.00 0.00 49 1018.0
20260831122447 44 126 2.0 2.0 0.00 0.00 0.00 49 1017.9
20260831121447 44 126 1.0 2.0 0.00 0.00 0.00 48 1017.8
20260831120447 44 126 0.0 2.0 0.00 0.00 0.00 48 1017.7
20260831115447 45 126 2.0 3.0 0.00 0.00 0.00 47 1017.7
20260831114447 45 126 1.0 3.0 0.00 0.00 0.00 47 1017.8
20260831113447 45 125 2.0 3.0 0.00 0.00 0.00 48 1017.8
20260831112447 45 125 0.0 3.0 0.00 0.00 0.00 48 1017.8
20260831111447 46 125 0.0 3.0 0.00 0.00 0.00 48 1017.8
20260831110446 46 125 2.0 3.0 0.00 0.00 0.00 47 1017.7
20260831105446 46 125 1.0 3.0 0.00 0.00 0.00 46 1017.8
20260831080445 52 156 0.0 0.0 0.00 0.00 0.00 47 1017.4
20260831075445 52 156 0.0 4.0 0.00 0.00 0.00 48 1017.3
20260831074444 52 156 0.0 0.0 0.00 0.00 0.00 46 1017.4
20260831073444 52 156 0.0 0.0 0.00 0.00 0.00 46 1017.4
20260831050443 56 2 0.0 0.0 0.00 0.00 0.00 44 1017.3
20260831045443 56 2 0.0 0.0 0.00 0.00 0.00 41 1017.3
20260831044443 57 2 0.0 0.0 0.00 0.00 0.00 40 1017.3
20260831043443 58 2 0.0 0.0 0.00 0.00 0.00 40 1017.2
20260831042442 58 2 0.0 0.0 0.00 0.00 0.00 40 1017.2
20260831041442 59 2 0.0 1.0 0.00 0.00 0.00 39 1017.3
20260831040503 59 2 0.0 1.0 0.00 0.00 0.00 36 1017.2
20260831035442 60 2 0.0 0.0 0.00 0.00 0.00 35 1017.1
20260831011441 72 351 3.0 9.0 0.00 0.00 0.00 21 1016.7
20260831010441 72 351 4.0 9.0 0.00 0.00 0.00 19 1016.6
20260831005441 72 2 2.0 10.0 0.00 0.00 0.00 21 1016.6
20260831004441 73 12 4.0 10.0 0.00 0.00 0.00 22 1016.8
20260831003440 73 15 5.0 10.0 0.00 0.00 0.00 22 1016.8
20260831002441 73 360 3.0 9.0 0.00 0.00 0.00 20 1016.8
20260830215439 74 329 8.0 9.0 0.00 0.00 0.00 22 1018.1
20260830214439 74 6 7.0 10.0 0.00 0.00 0.00 22 1018.2
20260830213459 74 300 8.0 10.0 0.00 0.00 0.00 24 1018.3
20260830212439 73 303 0.0 10.0 0.00 0.00 0.00 25 1018.3
20260830211439 73 323 5.0 10.0 0.00 0.00 0.00 25 1018.5
20260830210439 72 325 5.0 8.0 0.00 0.00 0.00 24 1018.8
20260830205459 72 351 8.0 10.0 0.00 0.00 0.00 23 1018.8
20260830204438 72 315 3.0 8.0 0.00 0.00 0.00 24 1019.0
20260830203438 72 303 5.0 8.0 0.00 0.00 0.00 24 1019.1
20260830202439 71 28 3.0 7.0 0.00 0.00 0.00 28 1019.2
20260830174437 64 334 2.0 10.0 0.00 0.00 0.00 37 1020.4
20260830173437 62 334 3.0 9.0 0.00 0.00 0.00 39 1020.4